Race Results for
Conestoga Challenge Road Race
Conestoga, Lancaster County , PA
(Event Information)
View By:
Road Race on 05/16/2009

Note: Ranking points are NOT upgrade points. An explanation of ranking points can be found here.


Men - MR - 35-39

 Place Points NameCity, StateTime USAC #BibTeam
1439.27John Spittal   Elizabethtown, PA2:20:25 64446  476 Spinners Cycling
2447.42Matt Hollenbach   Lancaster, PA2:20:25 16548  467 Swashbuckler Brewing Company
3455.57John Funk   South Kent, CT2:20:25 12562  463 CYCLE FITNESS
4463.72Michael Whitaker   Lancaster, PA2:20:25 188739  477 Spinners Cycling
5471.87George Opria   Manassas, VA2:20:25 210668  473 Evolution Cycling Club
6480.01Brad Ober   Lancaster, PA2:20:25 76653  481 Spinners Cycling
7488.16Brian Trdina   Frederick, MD2:20:25 56798  484 ERA Cycling
8496.31Robert Moskal   Norristown, PA2:20:25 79225  482 Elite Bicycles
9504.46Kenneth Wareham   Mount Joy, PA2:20:25 174846  485 Spinners Cycling
10512.61Keith Wilson   Mount Joy, PA2:20:25 113448  483 Spinners Cycling
11520.76Steven Doetschman   Millersville, MD2:20:25 162475  462 Annapolis Bicycle Racing Team
12528.91Stephen May   Lebanon, PA2:20:25 134837  470 Swashbuckler Brewing/PaRenfaire.com
13537.06David Krial   Macungie, PA2:20:25 143702  469 Cycledrome
14545.21William Wisse   Toms River, NJ2:20:25 38702  478 Team Norwood Agency - The Peddler
15553.36Michael Bradbury   Broadlands, VA2:20:25 187717  460 Evolution Cycling Club
16561.50Gerald Hinnershitz   Wernersville, PA2:20:25 205520  466 
17569.65Ryan Guttridge   Severna Park, MD2:20:25 199260  464 Latitude/ABRT
18577.80Michael Zban   Landisville, PA2:20:25 81236  479 Spinners Cycling

Men - MR - 45-49

 Place Points NameCity, StateTime USAC #BibTeam
1451.77Randy Thrasher   Germantown, MD1:49:44 60673  584 DC Velo Limited
2459.03Jeffrey Cordisco   Kennett Square, PA1:49:44 197994  569 DKNY-Signature Cycles
3466.29Scott Hodder   Oceanport, NJ1:49:44 46178  573 DKNY-Signature Cycles
4473.55Bryan Barrett   Easton, PA1:49:44 75409  567 BikeLine/LWA
5480.81Kevin Saint Clair   Philadelphia, PA1:49:44 92253  581 Main Line Cycling - Bikyle
6488.07Jim Pomeroy   York, PA1:49:44 199755  580 Spinners Cycling
7495.33Curt Hurst   Jersey City, NJ1:49:44 181324  591 Liberty Cycle
8502.60Roman Paczka   Sarasota, FL1:49:44 181880  587 MainLIne Cycling
9509.86Sean OReilly   Blue Bell, PA1:49:44 292032  579 Guys Racing
10517.12Rick Tucker   Reisterstown, MD1:49:44 169112  589 Lateral Stress Velo Inc.
11524.38Vladimir Borovkov   Old Bridge, NJ1:49:44 111890  588 Century Road Club Association
12531.64Ted Harris   Hurlock, MD1:49:44 196016  572 Team Latitude/ABRT
13538.90Art Miller   Conestoga, PA1:49:44 221543  576 Spinners Cycling
14546.16James Diffendall   Mountville, PA1:49:44 130527  570 Spinners Cycling
15553.42William Gentile   Lebanon, PA1:49:44 13043  571 spinners/lupine
16560.68Lawrence Towner   Boonton, NJ1:49:44 35822  590 Liberty Cycle
17567.94Robert Muller   Doylestown, PA1:49:44 262535  577 Central Bucks Velo

Men - MR - 55-59

 Place Points NameCity, StateTime USAC #BibTeam
1431.99William Care   Mt Gretna, PA1:59:20 172697  680 ERA Cycling
2458.77Scott Haverstick   Wash Boro, PA1:59:20 15461  685 ERA Cycling
3485.55Barry Free   Lebanon, PA1:59:20 12333  682 ERA Cycling
4512.32Royden Detweiler   Quakertown, PA1:59:20 230839  689 Lehigh Wheelmen Assoc
5539.10Leone Pizzini   Avondale, PA1:59:20 59912  688 Secret Henry's Team
6565.87Mike Connair   Elkton, MD1:59:20 76271  681 Christiana Care PT+/FSVS

Men - Cat 3/4

 Place Points NameCity, StateTime USAC #BibTeam
1439.46Joe Hallman   Lititz, PA2:19:09 110142  358 Mason-Dixon Velo/Team Cycle Works
2450.21Timothy Rugg   Harrisonburg, VA2:19:09 280764  368 The Bike Rack
3460.97Russell Brown   Gaithersburg, MD2:19:09 222506  349 NCVC/Inova Heath System
4471.72Kerry Werner   Banner Elk, NC2:19:09 264350  377 Shirks Presented by Trek
5482.47Christopher Consorto   Landenberg, PA2:19:09 194958  379 
6493.22Stephen Robinson   Arlington, VA2:19:09 30220  380 Squadra Coppi
7503.98Ryan Shebelsky   Elizabethtown, PA2:19:09 274785  373 Spinners Cycling
8514.73Brian Sacawa   Baltimore, MD2:19:09 218882  370 Kelly Benefit Strategies/LSV Amateur Cyc
9525.48Drew Karlberg   Philadelphia, PA2:19:09 232723  362 CCV-HotfootCycles/IronHill Race Team
10536.24Noel Heitmann   Lancaster, PA2:19:09 250037  360 Spinners Cycling
11546.99Manuel Caliz   Ephrata, PA2:19:09 244954  350 Shirks Racing Presented by Trek
12557.74Dan Conrad   Lancaster, PA2:19:09 252903  378 Unattached
13568.49David Grant   Downingtown, PA2:19:09 13897  356 CCV - Hotfoot Cycles/IronHill Race Team
14579.25shawn stafford   Austin, TX2:19:09 269754  382 Unattached
15590.00Philip Falconer   Lovettsville, VA2:19:09 192247  353 Evolution Cycling Club

Men - Cat 4

 Place Points NameCity, StateTime USAC #BibTeam
1523.48Joe Pigga   Bethelehem, PA1:46:35 282323  129 Lehigh University
2526.14Shane Watters   Philadelphia, PA1:46:35 280212  137 Bicycle therapy
3528.79Mike Festa   Devon, PA1:46:35 149744  113 Pawling Cycle & Sport
4531.45Bryan Hitch   Philadelphia, PA1:46:35 149458  119 main line cycling
5534.10Cyril Monnet   Wynnewood, PA1:46:35 289559  126 Quaker City Wheelmen/Breakawaybikes.com
6536.76Derek Oskutis   San Diego, CA1:46:35 266841  128 U.S. Naval Academy / Cadence / Wilier Bi
7539.41John Cutler   Washington, DC1:46:35 8457  108 CRCA
8542.07Emmett Randel   Edinburg, VA1:46:35 273957  132 James Madison University
9544.72Philip Gasparovic   Newark, DE1:46:35 290974  115 University of Delaware
10547.38Aleksander Betko   New York, NY1:46:35 241674  103 
11550.03David Henkel   Fairfax, VA1:46:35 255101  118 Main Line Cycling - BiKyle/Mazur Coachin
12552.69Jonathan Marshall   Chambersburg, PA1:46:35 277019  139 Unattached
13555.34Ashley Doane   New York, NY1:46:35 259830  110 Philadelphia Ciclismo
14558.00Raymond Plewacki   Fairfax, VA1:46:35 222263  130 Evolution Cycling Club
15560.65Todd Noonan   Sheffield, AL1:46:35 242255  127 Kutztown Cutters
16563.31John Nowoslawski   Salt Lake City, UT1:46:35 216186  141 Unattached
17565.97Michael Gagliano   Philadelphia, PA1:46:35 250963  114 
18568.62Steve Sandacz   Wayne, PA1:46:35 135690  136 MainLine Cycling - BiKyle/Mazur Coaching
19571.28Anthony Loden   Princeton, NJ1:46:35 283144  121 
20573.93David Dawson   Springfield, PA1:46:35 250197  109 Human Zoom/Pabst Blue Ribbon
21576.59Jonathan Akers   Allentown, PA1:46:35 242641  101 JVR Sports
22579.24Bruce Cole   Baltimore, MD1:46:35 265611  107 Bike Doctor/Bayside Velo
23581.90Jonathan Moncton   Washington, DC1:46:35 204268  125 
24584.55Matthew Randolph   Lancaster, PA1:46:35 197185  133 unattached
25587.21Mark Buyyounouski   Palo Alto, PA1:46:35 290386  105 unattached
26589.86Scott Goodwin   Philadelphia, PA1:46:35 221650  116 S&Sracing

Men - Cat 4/5

 Place Points NameCity, StateTime USAC #BibTeam
1540.00Jamie Clinton   Lancaster, PA1:14:23 288056  605 Gretna Bikes
2540.98Stephen Vajda   Freemansburg, PA1:14:23 290627  656 
3541.96Timothy Hoyle   Wayne, PA1:14:23 297148  626 West Chester Cycling Club
4542.94Samuel Forsyth   Solomons, MD1:14:23 295095  617 
5543.92Matthew Rettig   Cornwall, NY1:14:23 247425  646 CRCA
6544.90Gerald Adasavage   Philadelphia, PA1:14:23 278103  601 Bicycle Therapy
7545.88JT Theodoracopulos   New York, NY1:14:23 286779  664 Unattached
8546.86Darren Hartman   Lewisberry, PA1:14:23 272204  621 Mountainside Ski & Sports
9547.84Joseph Simora   Lancaster, PA1:14:23 287894  653 Spinners Cycling
10Rider Unknown   1:14:23  999 
11549.80John Schwarz   Quakertown, PA1:14:23 290648  650 Bike Line/LWA
12550.78Timothy Norejko   Marietta, PA1:14:23 179093  642 Spinners Cycling
13551.76Timothy Shaffer   Columbia, MD1:14:23 195845  651 Team BBC
14552.75Mark Lennie   Chester Springs, PA1:14:23 295689  631 
15553.73Michael Maret   Newville, PA1:14:23 290175  635 Millersville University Cycling
16554.71nathan cooper   Gilbertsville, PA1:14:23 293800  606 
17555.69Martin McKeon   Lancaster, PA1:14:23 179762  638 Guy's Racing Club
18Chuck Crabb   1:14:23  609 LRTC
19557.65Mark Buckwalter   Lancaster, PA1:14:23 289741  666 Spinners Cycling
20558.63Kristofer Moore   Easton, PA1:14:23 199779  640 
21559.61Luis Arenzana   Middletown, PA1:14:23 192829  602 Eastern Mobile / Phenix Velo
22560.59Jesse Manuel   Lancaster, PA1:14:23 286880  634 Millersville Cycling Club
23Eric Revene   1:14:23  647 
24562.55Timothy Kauffman   East Earl, PA1:14:23 283066  628 
25jason wilson   1:14:23  658 
26564.51Joshua Kush   Martinsville, IN1:14:23 281852  630 
27565.49Todd Parker   East Norriton, PA1:14:23 216884  644 TP2
28566.47Gordon Stone   Kennett Square, PA1:14:23 297942  665 
29567.45Nick DeAngelis   Lancaster, PA1:14:23 237850  611 CCV-HotfootCycles/IronHill Race Team
30568.43Jonathan Hostetter (1 - Cat4)   Lancaster, PA1:14:23 197263  663 Unattached
31569.41Lance Johnson   Baltimore , MD1:14:23 277849  627 Kelly Benefits Strategies/LSV
32570.39Andrew Cotter   Washington, DC1:14:23 284625  608 NCVC/Inova Health System
33571.37Michael Green   Philadelphia , PA1:14:23 296751  618 none
34572.35Chris Marschka   Lancaster , PA1:14:23 22579  636 Unaffiliated
35573.33Andrew Schrantz   New Holland, PA1:14:23 232958  649 
36Rider Unknown   1:14:23  999 
37575.29Vincent Corcoran   North Bennington, VT1:14:23 280457  607 none
38Rider Unknown   1:14:23  999 
39577.25Jose Hidalgo   Philadelphia, PA1:14:23 295412  624 Breakaway Racing/Quaker City Wheelmen
40578.24Christopher Peris   Lancaster, PA1:14:23 286654  645 International Christian Cycling Club
41579.22Gary Eveland   Philadelphia, PA1:14:23 287250  616 Quaker City Wheelmen/Breakawaybikes.com
42William Weismantel   1:14:23  662 Cycleworks
43581.18Eugene Deimler   Enola, PA1:14:23 272553  612 Mason-Dixon Velo/ Team Cycle Works
44582.16James Kralec (1 - Cat5)   White Hall, MD1:14:23 282970  629 Team BBC
45Michael Black   1:14:23  603 
46Trevor Hershey   1:14:23  623 West End Cycling Club
47585.10David Werkiser   West Chester, PA1:14:23 142578  657 West Chester Cycling Club
48586.08Gregg Haifley   Washington, DC1:14:23 294068  619 The Bike Rack
49587.06Scott Lyter   Harrisburg, PA1:14:23 213055  632 
50588.04Troy Cross   Washington, DC1:14:23 274580  610 The Bike Rack
51589.02Joseph Hammons   Scottsdale, AZ1:14:23 285810  620 West Chester Cycling Club
52590.00Thaddeus Newnam   Pottstown, PA1:14:23 252871  641 

Report missing or incorrect license numbers

Volkswagen
CUORESierra NevadaSpyShimanoUSACDFBonk Breaker
UCI USA Cycling is the official governing body for all disciplines of competitive cycling in the United States. The 501c3, membership-based organization aims both to achieve sustained success in international cycling competition and to grow competitive cycling in America while delivering an exceptional customer experience.
View Children's Online Privacy Protection Policy
US Olympic Committee